DW3733 Luzzi (cosenza) IT current weather conditions

sailwx.info

Wind from 127 at 1 knots gusting 2

Air temperature 25.0° C
Dewpoint 16.1° C

Last reported at 2014-Aug-21 21:13 UTC.
Time now 2014-Aug-22 02:02 UTC

Location: N 39°27' E 016°16'.
View on Google Maps.

See reports from other nearby stations

  
Tides and Currents Weather Stations Pressure Air Temp Water Temp Dewpoint Dewpoint Depression Visibility Wind Speed Wind Dir Waves Ship Positions
date/time (UTC)wind fromknots sea level pressurealtimeterstation pressurevisibilityair tempwater tempwave heightnotes
2014-Aug-21 21:13 127 1 gusting 2 25.0
2014-Aug-21 21:03 135 0 gusting 2 25.6
2014-Aug-21 20:53 108 1 gusting 2 25.6
2014-Aug-21 20:43 118 0 gusting 2 26.1
2014-Aug-21 20:33 105 1 gusting 2 26.1
2014-Aug-21 20:23 236 26.1
2014-Aug-21 20:13 180 0 gusting 2 25.6
2014-Aug-21 20:03 225 0 gusting 2 25.6
2014-Aug-21 19:53 225 25.6
2014-Aug-21 19:43 090 0 gusting 2 26.1
2014-Aug-21 19:33 092 0 gusting 2 26.7
2014-Aug-21 19:23 239 1 gusting 2 25.6
2014-Aug-21 19:13 069 1 gusting 2 25.6
2014-Aug-21 19:03 108 0 gusting 1 26.1
2014-Aug-21 18:53 090 26.7
2014-Aug-21 18:43 052 0 gusting 2 27.2
2014-Aug-21 18:33 27.8
2014-Aug-21 18:23 032 0 gusting 2 27.8
2014-Aug-21 18:13 047 0 gusting 2 28.3
2014-Aug-21 18:03 055 0 gusting 0 30.0
2014-Aug-21 17:53 225 1 gusting 2 30.0
2014-Aug-21 17:43 180 0 gusting 2 30.6
2014-Aug-21 17:33 329 30.6
2014-Aug-21 17:23 225 0 gusting 1 31.1
2014-Aug-21 17:13 185 0 gusting 2 31.7
2014-Aug-21 17:03 296 1 gusting 2 32.2
2014-Aug-21 16:53 180 0 gusting 4 32.2
2014-Aug-21 16:43 199 1 gusting 4 32.8
2014-Aug-21 16:33 196 1 gusting 6 32.8
2014-Aug-21 16:23 232 0 gusting 2 32.8
2014-Aug-21 16:13 295 0 gusting 1 32.8
2014-Aug-21 16:03 346 1 gusting 2 32.2
2014-Aug-21 15:53 251 1 gusting 4 31.7
2014-Aug-21 15:43 179 1 gusting 5 31.7
2014-Aug-21 15:33 225 1 gusting 5 31.1
2014-Aug-21 15:23 194 2 gusting 4 30.6
2014-Aug-21 15:13 151 0 gusting 5 30.6
2014-Aug-21 15:03 245 1 gusting 5 30.0
2014-Aug-21 14:53 220 1 gusting 5 30.6
2014-Aug-21 14:43 146 3 gusting 8 30.6
2014-Aug-21 14:33 106 5 gusting 8 30.6
2014-Aug-21 14:23 171 2 gusting 6 30.6
2014-Aug-21 14:13 147 3 gusting 6 30.6
2014-Aug-21 14:03 153 1 gusting 6 31.1
2014-Aug-21 13:53 281 2 gusting 5 30.6
2014-Aug-21 13:43 134 1 gusting 5 30.0
2014-Aug-21 13:33 196 0 gusting 2 30.6
2014-Aug-21 13:23 247 0 gusting 2 30.0
2014-Aug-21 13:13 095 1 gusting 5 30.0
2014-Aug-21 13:03 135 1 gusting 5 30.0
2014-Aug-21 12:53 349 2 gusting 5 30.0
2014-Aug-21 12:43 125 1 gusting 6 31.1
2014-Aug-21 12:33 265 2 gusting 8 31.7
2014-Aug-21 12:23 153 4 gusting 10 32.8
2014-Aug-21 12:13 213 6 gusting 8 33.3
2014-Aug-21 12:03 207 6 gusting 11 33.3
2014-Aug-21 11:53 225 4 gusting 11 32.8
2014-Aug-21 11:43 225 3 gusting 6 32.2
2014-Aug-21 11:33 149 1 gusting 6 31.1
2014-Aug-21 11:23 180 1 gusting 6 31.1
2014-Aug-21 11:13 180 2 gusting 6 30.6
2014-Aug-21 11:03 286 2 gusting 6 30.6
2014-Aug-21 10:53 231 2 gusting 8 31.1
2014-Aug-21 10:43 225 6 gusting 12 31.7
2014-Aug-21 10:33 210 5 gusting 12 32.2
2014-Aug-21 10:23 239 5 gusting 11 32.8
2014-Aug-21 10:13 180 2 gusting 7 32.8
2014-Aug-21 10:03 237 2 gusting 11 32.2
2014-Aug-21 09:53 188 4 gusting 7 31.7
2014-Aug-21 09:43 270 4 gusting 10 31.7
2014-Aug-21 09:33 190 5 gusting 7 31.1
2014-Aug-21 09:23 196 4 gusting 10 31.1
2014-Aug-21 09:13 211 2 gusting 10 31.1
2014-Aug-21 09:03 197 3 gusting 6 30.0
2014-Aug-21 08:53 232 2 gusting 6 28.9
2014-Aug-21 08:43 197 2 gusting 8 28.3
2014-Aug-21 08:33 231 3 gusting 6 28.3
2014-Aug-21 08:23 193 3 gusting 10 28.3
2014-Aug-21 08:13 102 5 gusting 8 27.8
2014-Aug-21 08:03 258 4 gusting 8 28.3
2014-Aug-21 07:53 313 5 gusting 12 27.8
2014-Aug-21 07:43 192 5 gusting 10 27.8
2014-Aug-21 07:33 165 4 gusting 11 28.3
2014-Aug-21 07:23 135 5 gusting 11 27.8
2014-Aug-21 07:13 090 5 gusting 8 26.7
2014-Aug-21 07:03 180 2 gusting 10 26.7
2014-Aug-21 06:53 090 4 gusting 11 26.1
2014-Aug-21 06:43 217 6 gusting 11 26.7
2014-Aug-21 06:33 244 2 gusting 8 27.2
2014-Aug-21 06:23 209 6 gusting 22 28.3
2014-Aug-21 06:13 164 9 gusting 19 28.3
2014-Aug-21 06:03 315 8 gusting 19 28.3
2014-Aug-21 05:53 187 0 gusting 1 25.6
2014-Aug-20 20:23 180 25.6
2014-Aug-20 20:13 180 0 gusting 0 25.6
2014-Aug-20 20:03 131 0 gusting 1 25.6
2014-Aug-20 19:53 25.0
2014-Aug-20 19:43 135 0 gusting 2 25.0
2014-Aug-20 19:33 090 0 gusting 2 25.6
2014-Aug-20 19:23 105 0 gusting 2 25.6
2014-Aug-20 19:13 25.6
2014-Aug-20 19:03 050 1 gusting 2 26.1
2014-Aug-20 18:53 008 26.7
2014-Aug-20 18:43 045 1 gusting 2 26.7
2014-Aug-20 18:33 045 0 gusting 2 26.7
2014-Aug-20 18:23 047 0 gusting 2 27.2
2014-Aug-20 18:13 153 1 gusting 4 27.8
2014-Aug-20 18:03 323 0 gusting 4 27.8
2014-Aug-20 17:53 045 1 gusting 4 28.3
2014-Aug-20 17:43 339 0 gusting 2 28.9
2014-Aug-20 17:33 343 0 gusting 2 28.9
2014-Aug-20 17:23 338 1 gusting 2 29.4
2014-Aug-20 17:13 336 1 gusting 2 30.0
2014-Aug-20 17:03 315 1 gusting 5 30.0
2014-Aug-20 16:53 30.6
2014-Aug-20 16:43 31.7
2014-Aug-20 16:33 32.8
2014-Aug-20 16:23 347 0 gusting 5 32.8
2014-Aug-20 16:13 351 0 gusting 6 33.3
2014-Aug-20 16:03 016 2 gusting 6 33.3
2014-Aug-20 15:53 334 2 gusting 6 33.9
2014-Aug-20 15:43 33.9
2014-Aug-20 15:33 329 2 gusting 6 34.4
2014-Aug-20 15:23 225 0 gusting 2 35.0
2014-Aug-20 15:13 020 1 gusting 4 35.6
2014-Aug-20 15:03 349 0 gusting 5 35.6
2014-Aug-20 14:53 037 1 gusting 2 35.6
2014-Aug-20 14:43 326 1 gusting 5 35.6
2014-Aug-20 14:33 315 1 gusting 5 35.6
2014-Aug-20 14:23 139 1 gusting 5 35.6
2014-Aug-20 14:13 155 0 gusting 2 35.6
2014-Aug-20 14:03 315 1 gusting 4 36.1
2014-Aug-20 13:53 253 2 gusting 5 36.1
2014-Aug-20 13:43 345 1 gusting 4 36.1
2014-Aug-20 13:33 297 1 gusting 6 35.6
2014-Aug-20 13:23 180 0 gusting 6 35.6
2014-Aug-20 13:13 349 0 gusting 6 35.6
2014-Aug-20 13:03 209 4 gusting 8 35.6
2014-Aug-20 12:53 227 2 gusting 7 35.6
2014-Aug-20 12:43 263 5 gusting 11 35.0
2014-Aug-20 12:33 217 5 gusting 12 35.0
2014-Aug-20 12:23 197 6 gusting 11 35.0
2014-Aug-20 12:13 209 6 gusting 10 35.0
2014-Aug-20 12:03 180 4 gusting 8 35.0
2014-Aug-20 11:53 135 3 gusting 8 34.4
2014-Aug-20 11:43 126 3 gusting 11 35.0
2014-Aug-20 11:33 184 4 gusting 10 34.4
2014-Aug-20 11:23 145 4 gusting 10 33.9
2014-Aug-20 11:13 209 4 gusting 8 33.9
2014-Aug-20 11:03 224 4 gusting 11 33.9
2014-Aug-20 10:53 180 3 gusting 8 33.9
2014-Aug-20 10:43 300 3 gusting 6 28.3